Regional Weather Roundup
Issued by NWS State College, PA

Home | Current Version | Previous Version | Text Only | Print | Product List | Glossary On
Versions: 1 2 3 4 5 6 7 8 9 10 11 12 13 14 15 16 17 18 19 20 21 22 23 24 25 26 27 28 29 30 31 32 33 34 35 36 37 38 39 40 41 42 43 44 45 46 47 48 49 50
000
ASUS41 KCTP 171503
RWRCTP

REGIONAL WEATHER ROUNDUP
NATIONAL WEATHER SERVICE STATE COLLEGE PA
1000 AM EST WED DEC 17 2014

Note: "fair" indicates few or no clouds below 12,000 feet with no
significant weather and/or obstructions to visibility.

* = STATION THAT DOES NOT REPORT PRECIPITATION /E.G. RAIN...SNOW...ETC/
    THUNDER OR FOG.

PAZ002>004-007>009-013>016-020>023-029>032-171600-
WESTERN PENNSYLVANIA

CITY           SKY/WX    TMP DP  RH WIND       PRES   REMARKS
ERIE           CLOUDY    36  30  79 W14G23    29.99R
MEADVILLE      LGT SNOW  32  29  88 W13G25    29.99R VSB 1
FRANKLIN*      CLOUDY    32  28  86 W8        30.00R VSB 1
NEW CASTLE     MIX PCPN  34  32  92 SW10      30.06R
BEAVER COUNTY  CLOUDY    34  30  86 W17G25    30.05R
BUTLER*        CLOUDY    34  30  86 W8G23     30.05R
PITTSBURGH INT FLURRIES  36  30  79 W13G22    30.05R
PITTSBURGH     CLOUDY    35  28  75 W20G26    30.05R
INDIANA*       PTSUNNY   36  34  93 W18       30.05R FOG
LATROBE        CLOUDY   N/A N/A N/A W16       30.06R
WASHINGTON CO* CLOUDY    36  30  80 W10G18    30.09S
$$

PAZ004>006-010>012-017>019-024>028-033>037-041-042-045-046-049>053-171600-
CENTRAL PENNSYLVANIA

CITY           SKY/WX    TMP DP  RH WIND       PRES   REMARKS
BRADFORD       CLOUDY    33  29  85 W14       29.90S
DUBOIS         LGT SNOW  34  32  92 W17G25    29.95R FOG
CLEARFIELD     LGT RAIN  37  33  85 W14G23    29.95R
JOHNSTOWN      LGT SNOW  32  29  88 W21G41    29.95R FOG
ALTOONA        CLOUDY    38  32  79 W12       29.98R
STATE COLLEGE  CLOUDY    39  34  81 W17G26    29.95R
WILLIAMSPORT   CLOUDY    45  37  73 W12       29.91R
SELINSGROVE    PTSUNNY   47  36  65 W10G18    29.94R
FT INDIANTOWN  PTSUNNY   48  38  68 W13G23    29.94R
CAPITAL CITY   PTSUNNY   48  38  68 W13       29.95R
HARRISBURG     PTSUNNY   48  39  71 W12       29.95R
YORK           PTSUNNY   49  38  65 W8        29.96R
$$

PAZ038>040-043-044-047-048-054-055-060>062-067>071-171600-
EASTERN PENNSYLVANIA

CITY           SKY/WX    TMP DP  RH WIND       PRES   REMARKS
SCRANTON       CLOUDY    44  39  82 SW8       29.88R
MOUNT POCONO   CLOUDY    40  37  89 W13G21    29.84R
ALLENTOWN      CLOUDY    47  40  76 W9        29.90R
QUAKERTOWN*    CLOUDY    48  39  71 W12G17    29.91R
READING        PTSUNNY   47  39  74 W10G18    29.93R
LANCASTER      PTSUNNY   47  41  80 W10       29.94R
COATESVILLE    CLOUDY    46  43  87 W6        29.94R
POTTSTOWN      CLOUDY    47  40  76 W7        29.93R
BLUE BELL      SUNNY     50  41  71 W6        29.91R
DOYLESTOWN     PTSUNNY   47  41  80 W10       29.89S
WILLOW GROVE   NOT AVBL
NORTH PHILA    PTSUNNY   52  39  61 W12       29.93R
PHILADELPHIA   PTSUNNY   48  41  76 W14       29.94R
$$



USA.gov is the U.S. government's official web portal to all federal, state and local government web resources and services.